Weather History for KLXT - November, 2012

Change the Weather History Date:

Sunday, November 4, 2012

  Actual Average (KMKC) Record (KMKC)
Temperature  
Mean Temperature 48 °F -  
Max Temperature 59 °F 56 °F 75 °F (2008)
Min Temperature 39 °F 40 °F 26 °F (2002)
Degree Days  
Heating Degree Days 17    
Moisture  
Dew Point 36 °F    
Average Humidity 63    
Maximum Humidity 82    
Minimum Humidity 46    
Precipitation  
Precipitation 0.00 in - - ()
Sea Level Pressure  
Sea Level Pressure 30.16 in    
Wind  
Wind Speed 3 mph (SSE)    
Max Wind Speed 10 mph    
Max Gust Speed -    
Visibility 10 miles    
Events      
Averages and records for this station are not official NWS values.
T = Trace of Precipitation, MM = Missing Value Source: NWS Daily Summary

Daily Weather History Graph

Daily Weather History Graph

Search for Another Location

Airport or City:

Trip Planner

Search our weather history database for the weather conditions in past years. The results will help you decide how hot, cold, wet, or windy it might be!

Date:

Astronomy

Nov. 04, 2012 Rise Set
Actual Time 6:48 AM CST 5:12 PM CST
Civil Twilight 6:20 AM CST 5:40 PM CST
Nautical Twilight 5:49 AM CST 6:12 PM CST
Astronomical Twilight 5:17 AM CST 6:43 PM CST
Moon 9:52 PM CST (11/4) 11:32 AM CST (11/4)
Length of Visible Light 11h 20m
Length of Day
10h 24m
Waning Gibbous, 72% of the Moon is Illuminated
Nov 4
Waning Gibbous
Nov 6
Last Quarter
Nov 13
New
Nov 20
First Quarter
Nov 28
Full

Hourly Weather History & Observations

Time (CST) Temp. Windchill Dew Point Humidity Pressure Visibility Wind Dir Wind Speed Gust Speed Precip Events Conditions
12:53 AM 42.1 °F - 34.0 °F 73% 30.22 in 10.0 mi Calm Calm - N/A   Clear
1:53 AM 39.9 °F - 33.1 °F 77% 30.23 in 10.0 mi Calm Calm - N/A   Clear
1:53 AM 41.0 °F 39.0 °F 33.1 °F 73% 30.21 in 10.0 mi South 3.5 mph - N/A   Clear
2:53 AM 42.1 °F 39.2 °F 32.0 °F 67% 30.20 in 10.0 mi SSE 4.6 mph - N/A   Clear
3:53 AM 39.9 °F - 33.1 °F 77% 30.20 in 10.0 mi Calm Calm - N/A   Clear
4:53 AM 39.0 °F - 33.1 °F 79% 30.22 in 10.0 mi Calm Calm - N/A   Clear
5:53 AM 39.9 °F - 34.0 °F 79% 30.22 in 10.0 mi Calm Calm - N/A   Scattered Clouds
6:53 AM 41.0 °F - 34.0 °F 76% 30.23 in 10.0 mi Calm Calm - N/A   Overcast
7:53 AM 41.0 °F 39.0 °F 36.0 °F 82% 30.24 in 10.0 mi SSW 3.5 mph - N/A   Mostly Cloudy
8:53 AM 45.0 °F 43.5 °F 37.9 °F 76% 30.25 in 10.0 mi SSW 3.5 mph - N/A   Clear
9:53 AM 51.1 °F - 39.0 °F 63% 30.24 in 10.0 mi South 9.2 mph - N/A   Partly Cloudy
10:53 AM 53.1 °F - 37.9 °F 57% 30.22 in 10.0 mi South 10.4 mph - N/A   Clear
11:53 AM 55.0 °F - 37.0 °F 51% 30.19 in 10.0 mi South 5.8 mph - N/A   Partly Cloudy
12:53 PM 57.0 °F - 37.0 °F 47% 30.16 in 10.0 mi South 8.1 mph - N/A   Partly Cloudy
1:53 PM 57.9 °F - 37.0 °F 46% 30.13 in 10.0 mi SSE 9.2 mph - N/A   Clear
2:53 PM 57.9 °F - 37.9 °F 47% 30.10 in 10.0 mi SSE 8.1 mph - N/A   Clear
3:53 PM 57.0 °F - 37.9 °F 49% 30.09 in 10.0 mi South 6.9 mph - N/A   Clear
4:53 PM 55.0 °F - 37.9 °F 53% 30.09 in 10.0 mi SSE 4.6 mph - N/A   Clear
5:53 PM 54.0 °F - 37.9 °F 55% 30.09 in 10.0 mi SSE 3.5 mph - N/A   Scattered Clouds
6:53 PM 53.1 °F - 37.9 °F 57% 30.09 in 10.0 mi ESE 5.8 mph - N/A   Clear
7:53 PM 52.0 °F - 37.9 °F 59% 30.07 in 10.0 mi SE 8.1 mph - N/A   Overcast
8:53 PM 53.1 °F - 37.0 °F 55% 30.06 in 10.0 mi SE 9.2 mph - N/A   Overcast
9:53 PM 53.1 °F - 37.0 °F 55% 30.05 in 10.0 mi South 5.8 mph - N/A   Overcast
10:53 PM 53.1 °F - 37.9 °F 57% 30.04 in 10.0 mi Variable 3.5 mph - N/A   Overcast